Location: Unspecified
(0.0000°N, 0.0000°E)
Time: 01:24:25
(UTC+00:00)

Courier 1B - Pass Details

Date: 22 November 2019
Orbit: 963 x 1209 km, 28.3° (Epoch: 11 December)

Event Time Altitude Azimuth Distance (km) Brightness Sun altitude
Rises 11:05:57 0° 315° (NW) 3,633 10.3 67.6°
Reaches altitude 10° 11:08:48 10° 324° (NW) 2,681 9.7 67.9°
Maximum altitude 11:14:39 36° 29° (NNE) 1,471 8.8 68.5°
Drops below altitude 10° 11:20:36 10° 94° (E) 2,729 10.1 68.9°
Sets 11:23:31 0° 103° (ESE) 3,706 10.7 69.1°
